Find Starlink 32653

NORAD ID: 62199 Int'l Des: 2024-229 Owner: SPXS Country: US Constellation: starlink operational
LEOCIRCULAR

現在のビュー

3D地球を読み込み中...

About Starlink 32653

Starlink 32653 (NORAD 62199) is a starlink constellation satellite (v2 mini) launched Dec 4, 2024 by SPXS of US. It operates in LEO, CIRCULAR orbit with a mass of 730.00 kg.

次回通過

Passes for default location (London). Set your location on the main map for personalized predictions.

高度履歴

Loading altitude history...

軌道要素

1 62199U 24229H 26263.30148593 .00005902 00000-0 22382-3 0 9994
2 62199 43.0035 244.7743 0002500 255.8276 104.2298 15.27584185100404
Epoch: Sep 20, 2026 • Age: 23 hours

現在のステータス

高度 483.0 km
遠地点 / 近地点 N/A
速度 7.63 km/s
衛星直下点 20.35°N, 51.83°W
打ち上げ日 Dec 4, 2024
運用期間 1.7 years
タイプ internet

技術仕様

分類 Payload
質量 730.00 kg
乾燥質量 700.00 kg
長さ 0.30 m
スパン 29.00 m
形状 ? Box + pan
製造者 SPXS
バスタイプ Starlink V2M
フェーズステータス In Orbit
所有者/国 SPXS/US

Most Searched